Change the Weather History Date:

Saturday, October 27, 2012

  Actual Average Record
Temperature  
Mean Temperature 79 °F -  
Max Temperature 86 °F 82 °F 95 °F (2006)
Min Temperature 72 °F 69 °F 68 °F (2014)
Cooling Degree Days 14    
Growing Degree Days 29 (Base 50)    
Moisture  
Dew Point 75 °F    
Average Humidity 87    
Maximum Humidity 100    
Minimum Humidity 61    
Precipitation  
Precipitation 0.00 in 0.18 in - ()
Sea Level Pressure  
Sea Level Pressure 29.89 in    
Wind  
Wind Speed 3 mph ()    
Max Wind Speed 12 mph    
Max Gust Speed -    
Visibility 6.5 miles    
Events      
Averages and records for this station are not official NWS values.
T = Trace of Precipitation, MM = Missing Value Source: Averaged Metar Reports

Daily Weather History Graph

Daily Weather History Graph

Search for Another Location

Airport or City:

Trip Planner

Search our weather history database for the weather conditions in past years. The results will help you decide how hot, cold, wet, or windy it might be!

Date:

Astronomy

Oct. 27, 2012 Rise Set
Actual Time 5:46 AM CST 5:24 PM CST
Civil Twilight 5:24 AM CST 5:46 PM CST
Nautical Twilight 4:59 AM CST 6:11 PM CST
Astronomical Twilight 4:33 AM CST 6:36 PM CST
Moon 4:00 PM CST (10/27) 3:55 AM CST (10/27)
Length of Visible Light 12h 21m
Length of Day
11h 37m
Waxing Gibbous, 96% of the Moon is Illuminated
Oct 27
Waxing Gibbous
Oct 29
Full
Nov 6
Last Quarter
Nov 13
New
Nov 20
First Quarter

Hourly Weather History & Observations

Time (CST) Temp. Heat Index Dew Point Humidity Pressure Visibility Wind Dir Wind Speed Gust Speed Precip Events Conditions
12:00 AM 75 °F - 75 °F 99% 29.88 in 7 mi ESE 3.5 mph - -   Haze
12:00 AM 75.2 °F - 75.2 °F 100% 29.89 in 6.2 mi ESE 3.5 mph - N/A   Scattered Clouds
1:00 AM 75.2 °F - 75.2 °F 100% 29.89 in 6.2 mi Calm Calm - N/A   Scattered Clouds
2:00 AM 75.2 °F - 75.2 °F 100% 29.89 in 6.2 mi SW 2.3 mph - N/A   Scattered Clouds
3:00 AM 74 °F - 74 °F 100% 29.86 in 7 mi SSW 2.3 mph - -   Haze
3:00 AM 75.2 °F - 75.2 °F 100% 29.86 in 6.2 mi SSW 2.3 mph - N/A   Scattered Clouds
4:00 AM 73.4 °F - 73.4 °F 100% 29.89 in 6.2 mi SSW 3.5 mph - N/A   Scattered Clouds
5:00 AM 75.2 °F - 75.2 °F 100% 29.86 in 6.2 mi SSE 2.3 mph - N/A   Scattered Clouds
6:00 AM 75 °F - 74 °F 97% 29.89 in 9 mi South 2.3 mph - -   Haze
6:00 AM 75.2 °F - 75.2 °F 100% 29.89 in 6.2 mi South 2.3 mph - N/A   Scattered Clouds
7:00 AM 75.2 °F - 75.2 °F 100% 29.89 in 6.2 mi Calm Calm - N/A   Mostly Cloudy
8:00 AM 78.8 °F - 75.2 °F 89% 29.92 in 6.2 mi SSW 4.6 mph - N/A   Mostly Cloudy
9:00 AM 82 °F - 75 °F 75% 29.95 in 6 mi Calm Calm - -   Haze
9:00 AM 82.4 °F 89.5 °F 75.2 °F 79% 29.95 in 6.2 mi Calm Calm - N/A   Mostly Cloudy
10:00 AM 82.4 °F 90.9 °F 77.0 °F 84% 29.92 in 6.2 mi WNW 4.6 mph - N/A   Mostly Cloudy
11:00 AM 84.2 °F 92.3 °F 75.2 °F 74% 29.92 in 6.2 mi NE 4.6 mph - N/A   Scattered Clouds
12:00 PM 80 °F - 72 °F 71% 29.91 in 9 mi North 11.5 mph - -   Haze
12:00 PM 80.6 °F 84.6 °F 71.6 °F 74% 29.89 in 6.2 mi North 11.5 mph - N/A   Mostly Cloudy
1:00 PM 84.2 °F 92.3 °F 75.2 °F 74% 29.86 in 6.2 mi NNE 4.6 mph - N/A   Scattered Clouds
2:00 PM 86.0 °F 95.1 °F 75.2 °F 70% 29.86 in 6.2 mi North 6.9 mph - N/A   Mostly Cloudy
3:00 PM 86 °F - 74 °F 61% 29.83 in 6 mi ENE 3.5 mph - -   Haze
3:00 PM 86.0 °F 95.1 °F 75.2 °F 70% 29.83 in 6.2 mi ENE 3.5 mph - N/A   Mostly Cloudy
4:00 PM 86.0 °F 93.4 °F 73.4 °F 66% 29.83 in 6.2 mi NE 4.6 mph - N/A   Scattered Clouds
5:00 PM 82.4 °F 88.2 °F 73.4 °F 74% 29.83 in 6.2 mi NE 4.6 mph - N/A   Mostly Cloudy
6:00 PM 78.8 °F - 75.2 °F 89% 29.86 in 6.2 mi NE 4.6 mph - N/A   Mostly Cloudy
7:00 PM 77.0 °F - 75.2 °F 94% 29.89 in 6.2 mi Variable 2.3 mph - N/A   Scattered Clouds
8:00 PM 77.0 °F - 75.2 °F 94% 29.92 in 6.2 mi NW 2.3 mph - N/A   Partly Cloudy
9:00 PM 74 °F - 74 °F 98% 29.94 in 7 mi Calm Calm - -   Haze
9:00 PM 75.2 °F - 73.4 °F 94% 29.95 in 6.2 mi Calm Calm - N/A   Partly Cloudy